• In Uzbekistan
  • List of Countries
  • For 7 days
  • Water Temperature
  • Satellite Maps
  • Weather Map
  • Weather Widgets
  • user-avatar
    Login

    Hourly Weather Buenos Aires

    Today, 26 February, Sunday

    Time Temperature Precipitation Wind Pressure Humidity
    00:00 +27°C° 0 mm 3 mps 757 mmHg 74%
    01:00 +26°C° 0 mm 3 mps 757 mmHg 76%
    02:00 +26°C° 0 mm 3 mps 757 mmHg 77%
    03:00 +26°C° 0 mm 3 mps 757 mmHg 78%
    04:00 +26°C° 0 mm 3 mps 757 mmHg 78%
    05:00 +26°C° 0 mm 3 mps 757 mmHg 79%
    06:00 +28°C° 0 mm 3 mps 758 mmHg 71%
    07:00 +30°C° 0 mm 3 mps 758 mmHg 63%
    08:00 +31°C° 0 mm 3 mps 758 mmHg 55%
    09:00 +34°C° 0 mm 2 mps 758 mmHg 48%
    10:00 +36°C° 0 mm 2 mps 758 mmHg 41%
    11:00 +38°C° 0 mm 2 mps 758 mmHg 34%
    12:00 +39°C° 0 mm 2 mps 757 mmHg 32%
    13:00 +39°C° 0 mm 3 mps 757 mmHg 30%
    14:00 +40°C° 0 mm 3 mps 757 mmHg 29%
    15:00 +40°C° 0 mm 4 mps 756 mmHg 31%
    16:00 +38°C° 0 mm 4 mps 756 mmHg 33%
    17:00 +38°C° 0 mm 4 mps 756 mmHg 35%
    18:00 +35°C° 0 mm 4 mps 756 mmHg 43%
    19:00 +33°C° 0 mm 4 mps 756 mmHg 51%
    20:00 +30°C° 0 mm 4 mps 757 mmHg 58%
    21:00 +29°C° 0 mm 4 mps 757 mmHg 61%
    22:00 +29°C° 0 mm 4 mps 757 mmHg 64%
    23:00 +29°C° 0 mm 3 mps 757 mmHg 66%

    Tomorrow, 27 February, Monday

    Time Temperature Precipitation Wind Pressure Humidity
    00:00 +28°C° 0 mm 3 mps 757 mmHg 67%
    01:00 +28°C° 0 mm 3 mps 757 mmHg 67%
    02:00 +27°C° 0 mm 3 mps 757 mmHg 68%
    03:00 +27°C° 0 mm 4 mps 757 mmHg 69%
    04:00 +27°C° 0 mm 4 mps 757 mmHg 69%
    05:00 +26°C° 0 mm 4 mps 757 mmHg 70%
    06:00 +28°C° 0 mm 4 mps 757 mmHg 65%
    07:00 +29°C° 0 mm 4 mps 757 mmHg 59%
    08:00 +32°C° 0 mm 4 mps 758 mmHg 53%
    09:00 +34°C° 0 mm 4 mps 757 mmHg 46%
    10:00 +36°C° 0 mm 4 mps 757 mmHg 39%
    11:00 +38°C° 0 mm 3 mps 757 mmHg 32%
    12:00 +39°C° 0 mm 3 mps 756 mmHg 31%
    13:00 +39°C° 0 mm 3 mps 756 mmHg 29%
    14:00 +40°C° 0 mm 3 mps 755 mmHg 27%
    15:00 +39°C° 0 mm 3 mps 755 mmHg 30%
    16:00 +38°C° 0 mm 4 mps 755 mmHg 32%
    17:00 +37°C° 0 mm 4 mps 754 mmHg 34%
    18:00 +35°C° 0 mm 4 mps 754 mmHg 40%
    19:00 +33°C° 0 mm 4 mps 754 mmHg 46%
    20:00 +32°C° 0 mm 5 mps 755 mmHg 52%
    21:00 +30°C° 0 mm 5 mps 755 mmHg 54%
    22:00 +30°C° 0 mm 4 mps 755 mmHg 57%
    23:00 +29°C° 0 mm 4 mps 755 mmHg 60%

    Day after tomorrow, 28 February, Tuesday

    Time Temperature Precipitation Wind Pressure Humidity
    00:00 +29°C° 0 mm 4 mps 755 mmHg 61%
    01:00 +28°C° 0 mm 5 mps 754 mmHg 62%
    02:00 +28°C° 0 mm 5 mps 754 mmHg 63%
    03:00 +27°C° 0 mm 4 mps 754 mmHg 66%
    04:00 +26°C° 0 mm 4 mps 754 mmHg 68%
    05:00 +26°C° 0 mm 4 mps 754 mmHg 71%
    06:00 +27°C° 0.1 mm 4 mps 754 mmHg 65%
    07:00 +29°C° 0.1 mm 5 mps 754 mmHg 58%
    08:00 +30°C° 0.1 mm 5 mps 755 mmHg 52%
    09:00 +34°C° 0 mm 5 mps 754 mmHg 45%
    10:00 +36°C° 0 mm 5 mps 754 mmHg 38%
    11:00 +40°C° 0 mm 4 mps 753 mmHg 31%
    12:00 +40°C° 0 mm 4 mps 753 mmHg 29%
    13:00 +41°C° 0 mm 4 mps 752 mmHg 27%
    14:00 +42°C° 0 mm 4 mps 751 mmHg 25%
    15:00 +41°C° 0 mm 4 mps 751 mmHg 28%
    16:00 +38°C° 0 mm 4 mps 750 mmHg 30%
    17:00 +37°C° 0 mm 4 mps 750 mmHg 33%
    18:00 +36°C° 0 mm 4 mps 750 mmHg 35%
    19:00 +35°C° 0 mm 5 mps 750 mmHg 38%
    20:00 +34°C° 0 mm 5 mps 750 mmHg 40%
    21:00 +33°C° 0 mm 5 mps 750 mmHg 44%
    22:00 +32°C° 0 mm 6 mps 750 mmHg 48%
    23:00 +30°C° 0 mm 6 mps 751 mmHg 52%

    1 March, Wednesday

    Time Temperature Precipitation Wind Pressure Humidity
    00:00 +29°C° 0 mm 6 mps 750 mmHg 54%
    01:00 +28°C° 0 mm 5 mps 750 mmHg 57%
    02:00 +27°C° 0 mm 5 mps 750 mmHg 59%
    03:00 +27°C° 0.2 mm 5 mps 750 mmHg 60%
    04:00 +27°C° 0.2 mm 5 mps 750 mmHg 60%
    05:00 +26°C° 0.2 mm 5 mps 750 mmHg 61%
    06:00 +28°C° 0.2 mm 5 mps 751 mmHg 57%
    07:00 +29°C° 0.2 mm 6 mps 751 mmHg 53%
    08:00 +30°C° 0.2 mm 7 mps 752 mmHg 50%
    09:00 +33°C° 0.2 mm 6 mps 752 mmHg 44%
    10:00 +36°C° 0.2 mm 5 mps 752 mmHg 39%
    11:00 +38°C° 0.2 mm 4 mps 752 mmHg 33%
    12:00 +40°C° 0 mm 4 mps 751 mmHg 30%
    13:00 +41°C° 0 mm 4 mps 751 mmHg 27%
    14:00 +42°C° 0 mm 3 mps 750 mmHg 24%
    15:00 +40°C° 0 mm 3 mps 750 mmHg 26%
    16:00 +39°C° 0 mm 3 mps 750 mmHg 29%
    17:00 +37°C° 0 mm 3 mps 750 mmHg 31%
    18:00 +35°C° 0.1 mm 4 mps 750 mmHg 39%
    19:00 +32°C° 0.1 mm 6 mps 751 mmHg 47%
    20:00 +29°C° 0.1 mm 7 mps 751 mmHg 55%
    21:00 +28°C° 0.1 mm 6 mps 752 mmHg 63%
    22:00 +27°C° 0.1 mm 6 mps 752 mmHg 71%
    23:00 +24°C° 0.1 mm 6 mps 752 mmHg 78%

    2 March, Thursday

    Time Temperature Precipitation Wind Pressure Humidity
    00:00 +24°C° 0.4 mm 6 mps 752 mmHg 82%
    01:00 +23°C° 0.4 mm 6 mps 752 mmHg 86%
    02:00 +23°C° 0.4 mm 6 mps 752 mmHg 90%
    03:00 +23°C° 0.8 mm 6 mps 753 mmHg 91%
    04:00 +23°C° 0.8 mm 7 mps 753 mmHg 92%
    05:00 +23°C° 0.8 mm 7 mps 753 mmHg 93%
    06:00 +24°C° 0.2 mm 7 mps 753 mmHg 90%
    07:00 +24°C° 0.2 mm 7 mps 753 mmHg 87%
    08:00 +26°C° 0.2 mm 7 mps 753 mmHg 84%
    09:00 +28°C° 0 mm 7 mps 753 mmHg 75%
    10:00 +30°C° 0 mm 6 mps 753 mmHg 67%
    11:00 +33°C° 0 mm 6 mps 752 mmHg 58%
    12:00 +34°C° 0 mm 5 mps 752 mmHg 53%
    13:00 +36°C° 0 mm 4 mps 751 mmHg 48%
    14:00 +37°C° 0 mm 4 mps 751 mmHg 43%
    15:00 +36°C° 0.1 mm 4 mps 751 mmHg 48%
    16:00 +35°C° 0.1 mm 5 mps 750 mmHg 53%
    17:00 +33°C° 0.1 mm 5 mps 750 mmHg 58%
    18:00 +30°C° 1.4 mm 6 mps 751 mmHg 67%
    19:00 +28°C° 1.4 mm 6 mps 751 mmHg 76%
    20:00 +26°C° 1.4 mm 7 mps 752 mmHg 86%
    21:00 +23°C° 10.3 mm 7 mps 752 mmHg 89%
    22:00 +21°C° 10.3 mm 8 mps 753 mmHg 92%
    23:00 +20°C° 10.3 mm 8 mps 754 mmHg 95%

    3 March, Friday

    Time Temperature Precipitation Wind Pressure Humidity
    00:00 +18°C° 2.9 mm 8 mps 754 mmHg 94%
    01:00 +18°C° 2.9 mm 7 mps 755 mmHg 94%
    02:00 +18°C° 2.9 mm 7 mps 755 mmHg 93%
    03:00 +17°C° 0.1 mm 7 mps 756 mmHg 92%
    04:00 +17°C° 0.1 mm 7 mps 756 mmHg 91%
    05:00 +16°C° 0.1 mm 8 mps 757 mmHg 90%
    06:00 +17°C° 0 mm 8 mps 758 mmHg 85%
    07:00 +17°C° 0 mm 8 mps 758 mmHg 80%
    08:00 +18°C° 0 mm 8 mps 759 mmHg 75%
    09:00 +21°C° 0 mm 8 mps 759 mmHg 65%
    10:00 +22°C° 0 mm 8 mps 760 mmHg 56%
    11:00 +24°C° 0 mm 8 mps 760 mmHg 46%
    12:00 +26°C° 0 mm 8 mps 760 mmHg 42%
    13:00 +27°C° 0 mm 8 mps 760 mmHg 38%
    14:00 +27°C° 0 mm 8 mps 760 mmHg 35%
    15:00 +27°C° 0 mm 7 mps 760 mmHg 38%
    16:00 +26°C° 0 mm 7 mps 760 mmHg 41%
    17:00 +26°C° 0 mm 6 mps 760 mmHg 44%
    18:00 +23°C° 0 mm 6 mps 761 mmHg 48%
    19:00 +21°C° 0 mm 6 mps 761 mmHg 52%
    20:00 +20°C° 0 mm 5 mps 762 mmHg 56%
    21:00 +19°C° 0 mm 5 mps 762 mmHg 59%
    22:00 +19°C° 0 mm 6 mps 762 mmHg 62%
    23:00 +17°C° 0 mm 6 mps 763 mmHg 65%
    Show more